Location: Champseau
(45.8333°N, 1.7667°E)
Time: 18:10:04
(UTC+00:00)

STRAND 1 - Pass Details

Date: 28 November 2021
Orbit: 768 x 780 km, 98.4° (Epoch: 23 January)

Event Time Altitude Azimuth Distance (km) Brightness Sun altitude
Rises 05:55:47 0° 160° (SSE) 3,249 ? -12.6°
Reaches altitude 10° 05:58:05 10° 159° (SSE) 2,324 ? -12.3°
Maximum altitude 06:03:12 78° 74° (ENE) 798 ? -11.4°
Drops below altitude 10° 06:08:21 10° 349° (NNW) 2,333 ? -10.6°
Sets 06:10:40 0° 348° (NNW) 3,263 ? -10.2°
